Location: Dattensoll
(49.9928°N, 9.8954°E)
Time: 19:34:33
(UTC+00:00)

Cosmos 1980 Rocket - Pass Details

Date: 19 May 2025
Orbit: 829 x 847 km, 71.0° (Epoch: 20 June)

Event Time Altitude Azimuth Distance (km) Brightness Sun altitude
Rises 22:29:52 0° 321° (NW) 3,383 6.4 -19.3°
Reaches altitude 10° 22:32:47 10° 307° (NW) 2,445 5.3 -19.3°
Maximum altitude 22:36:59 22° 258° (WSW) 1,732 3.8 -19.5°
Enters shadow 22:39:19 17° 226° (SW) 1,975 3.8 -19.5°
